Tracking 30701 objects as of 15-Jun-2025
HD Live streaming from Space Station
objects crossing your sky now

CZ-2D R/B

Track CZ-2D R/B now!
10-day predictions


NORAD ID: 54641
Int'l Code: 2022-165B
Perigee: 652.0 km
Apogee: 696.9 km
Inclination: 98.1 °
Period: 98.1 minutes
Semi major axis: 7045 km
RCS: Unknown
Launch date: December 8, 2022
Source: People's Republic of China (PRC)
Launch site: Taiyaun Space Center, China (TSC)

Note: This is a ROCKET BODY
Your satellite tracking list
Your tracking list is empty




NASA's NSSDC Master Catalog

Two Line Element Set (TLE):
1 54641U 22165B   25165.86031361  .00000555  00000-0  10472-3 0  9995
2 54641  98.1192 105.6054 0031869 276.9551  82.8029 14.68060356134708
Source of the keplerian elements: McCants